This is the latest recevied weather packets stored in our database for station/object DO9LL-1. If no packets are shown the sender has not sent any weather packets the latest 10 day(s).
| Time | Temp. | Humidity | Pressure | Rain* | Wind** | Luminosity | Snow |
|---|---|---|---|---|---|---|---|
| 1777651654 | 25° C | 29% | 1021.5 hPa | 0 mm | - | - | - |
| 1777651050 | 25.56° C | 30% | 1021.6 hPa | 0 mm | - | - | - |
| 1777650446 | 25.56° C | 29% | 1021.7 hPa | 0 mm | - | - | - |
| 1777649843 | 25.56° C | 29% | 1021.8 hPa | 0 mm | - | - | - |
| 1777649239 | 25.56° C | 29% | 1022 hPa | 0 mm | - | - | - |
| 1777648655 | 25.56° C | 29% | 1022.1 hPa | 0 mm | - | - | - |
| 1777648052 | 25.56° C | 29% | 1022.2 hPa | 0 mm | - | - | - |
| 1777647448 | 25.56° C | 29% | 1022.2 hPa | 0 mm | - | - | - |
| 1777646845 | 25° C | 29% | 1022.3 hPa | 0 mm | - | - | - |
| 1777646241 | 25.56° C | 30% | 1022.3 hPa | 0 mm | - | - | - |
| 1777645637 | 25° C | 30% | 1022.4 hPa | 0 mm | - | - | - |
| 1777645054 | 25° C | 29% | 1022.5 hPa | 0 mm | - | - | - |
| 1777644450 | 25.56° C | 28% | 1022.6 hPa | 0 mm | - | - | - |
| 1777643847 | 25° C | 30% | 1022.8 hPa | 0 mm | - | - | - |
| 1777643244 | 24.44° C | 30% | 1022.9 hPa | 0 mm | - | - | - |
| 1777642642 | 24.44° C | 29% | 1023.2 hPa | 0 mm | - | - | - |
| 1777642036 | 24.44° C | 30% | 1023.2 hPa | 0 mm | - | - | - |
| 1777641454 | 24.44° C | 31% | 1023.4 hPa | 0 mm | - | - | - |
| 1777640850 | 23.89° C | 31% | 1023.6 hPa | 0 mm | - | - | - |
| 1777640246 | 23.89° C | 30% | 1023.8 hPa | 0 mm | - | - | - |
| 1777639643 | 23.33° C | 31% | 1024 hPa | 0 mm | - | - | - |
| 1777639039 | 23.89° C | 32% | 1024.1 hPa | 0 mm | - | - | - |
| 1777638436 | 23.33° C | 33% | 1024.2 hPa | 0 mm | - | - | - |
| 1777637853 | 23.33° C | 35% | 1024.3 hPa | 0 mm | - | - | - |
| 1777637249 | 22.78° C | 35% | 1024.5 hPa | 0 mm | - | - | - |
* Rain latest hour (hover to see other rain measurements)
** Current wind speed in m/s (hover to see current wind gust speed)